Year,Month,Day,Hour,Minute,Value (Times are PST for temperature in C)
2010,08,16,00,00,22.60
2010,08,16,00,01,22.60
2010,08,16,00,02,22.60
2010,08,16,00,03,22.60
2010,08,16,00,04,22.60
2010,08,16,00,05,22.50
2010,08,16,00,06,22.50
2010,08,16,00,07,22.40
2010,08,16,00,08,22.40
2010,08,16,00,09,22.40
2010,08,16,00,10,22.40
2010,08,16,00,11,22.40
2010,08,16,00,12,22.40
2010,08,16,00,13,22.30
2010,08,16,00,14,22.30
2010,08,16,00,15,22.30
2010,08,16,00,16,22.30
2010,08,16,00,17,22.30
2010,08,16,00,18,22.30
2010,08,16,00,19,22.30
2010,08,16,00,20,22.30
2010,08,16,00,21,22.20
2010,08,16,00,22,22.10
2010,08,16,00,23,22.00
2010,08,16,00,24,22.00
2010,08,16,00,25,21.90
2010,08,16,00,26,21.90
2010,08,16,00,27,21.80
2010,08,16,00,28,21.70
2010,08,16,00,29,21.70
2010,08,16,00,30,21.60
2010,08,16,00,31,21.60
2010,08,16,00,32,21.50
2010,08,16,00,33,21.40
2010,08,16,00,34,21.40
2010,08,16,00,35,21.40
2010,08,16,00,36,21.40
2010,08,16,00,37,21.40
2010,08,16,00,38,21.30
2010,08,16,00,39,21.30
2010,08,16,00,40,21.20
2010,08,16,00,41,21.20
2010,08,16,00,42,21.10
2010,08,16,00,43,21.10
2010,08,16,00,44,21.10
2010,08,16,00,45,21.10
2010,08,16,00,46,21.00
2010,08,16,00,47,21.00
2010,08,16,00,48,20.90
2010,08,16,00,49,20.90
2010,08,16,00,50,20.80
2010,08,16,00,51,20.80
2010,08,16,00,52,20.80
2010,08,16,00,53,20.70
2010,08,16,00,54,20.70
2010,08,16,00,55,20.70
2010,08,16,00,56,20.80
2010,08,16,00,57,20.70
2010,08,16,00,58,20.70
2010,08,16,00,59,20.70
2010,08,16,01,00,20.70
2010,08,16,01,01,20.70
2010,08,16,01,02,20.70
2010,08,16,01,03,20.70
2010,08,16,01,04,20.80
2010,08,16,01,05,20.80
2010,08,16,01,06,20.80
2010,08,16,01,07,20.90
2010,08,16,01,08,20.90
2010,08,16,01,09,20.80
2010,08,16,01,10,20.90
2010,08,16,01,11,20.80
2010,08,16,01,12,20.90
2010,08,16,01,13,20.90
2010,08,16,01,14,20.90
2010,08,16,01,15,21.00
2010,08,16,01,16,21.00
2010,08,16,01,17,21.10
2010,08,16,01,18,21.20
2010,08,16,01,19,21.40
2010,08,16,01,20,21.60
2010,08,16,01,21,21.80
2010,08,16,01,22,22.00
2010,08,16,01,23,22.20
2010,08,16,01,24,22.40
2010,08,16,01,25,22.60
2010,08,16,01,26,22.80
2010,08,16,01,27,22.90
2010,08,16,01,28,23.00
2010,08,16,01,29,23.10
2010,08,16,01,30,23.20
2010,08,16,01,31,23.20
2010,08,16,01,32,23.30
2010,08,16,01,33,23.30
2010,08,16,01,34,23.40
2010,08,16,01,35,23.40
2010,08,16,01,36,23.50
2010,08,16,01,37,23.50
2010,08,16,01,38,23.50
2010,08,16,01,39,23.60
2010,08,16,01,40,23.60
2010,08,16,01,41,23.60
2010,08,16,01,42,23.60
2010,08,16,01,43,23.50
2010,08,16,01,44,23.50
2010,08,16,01,45,23.40
2010,08,16,01,46,23.30
2010,08,16,01,47,23.30
2010,08,16,01,48,23.20
2010,08,16,01,49,23.20
2010,08,16,01,50,23.10
2010,08,16,01,51,23.10
2010,08,16,01,52,23.00
2010,08,16,01,53,22.90
2010,08,16,01,54,22.70
2010,08,16,01,55,22.50
2010,08,16,01,56,22.30
2010,08,16,01,57,22.20
2010,08,16,01,58,22.00
2010,08,16,01,59,21.80
2010,08,16,02,00,21.70
2010,08,16,02,01,21.60
2010,08,16,02,02,21.60
2010,08,16,02,03,21.50
2010,08,16,02,04,21.40
2010,08,16,02,05,21.30
2010,08,16,02,06,21.20
2010,08,16,02,07,21.10
2010,08,16,02,08,21.00
2010,08,16,02,09,20.90
2010,08,16,02,10,20.80
2010,08,16,02,11,20.80
2010,08,16,02,12,20.80
2010,08,16,02,13,20.80
2010,08,16,02,14,20.80
2010,08,16,02,15,20.80
2010,08,16,02,16,20.80
2010,08,16,02,17,20.80
2010,08,16,02,18,20.90
2010,08,16,02,19,20.90
2010,08,16,02,20,20.90
2010,08,16,02,21,20.90
2010,08,16,02,22,21.00
2010,08,16,02,23,21.00
2010,08,16,02,24,21.10
2010,08,16,02,25,21.20
2010,08,16,02,26,21.20
2010,08,16,02,27,21.20
2010,08,16,02,28,21.20
2010,08,16,02,29,21.20
2010,08,16,02,30,21.20
2010,08,16,02,31,21.20
2010,08,16,02,32,21.20
2010,08,16,02,33,21.20
2010,08,16,02,34,21.20
2010,08,16,02,35,21.20
2010,08,16,02,36,21.30
2010,08,16,02,37,21.30
2010,08,16,02,38,21.30
2010,08,16,02,39,21.40
2010,08,16,02,40,21.50
2010,08,16,02,41,21.60
2010,08,16,02,42,21.60
2010,08,16,02,43,21.50
2010,08,16,02,44,21.50
2010,08,16,02,45,21.40
2010,08,16,02,46,21.30
2010,08,16,02,47,21.10
2010,08,16,02,48,21.00
2010,08,16,02,49,20.90
2010,08,16,02,50,20.80
2010,08,16,02,51,20.70
2010,08,16,02,52,20.60
2010,08,16,02,53,20.50
2010,08,16,02,54,20.40
2010,08,16,02,55,20.40
2010,08,16,02,56,20.30
2010,08,16,02,57,20.20
2010,08,16,02,58,20.10
2010,08,16,02,59,20.00
2010,08,16,03,00,19.90
2010,08,16,03,01,19.80
2010,08,16,03,02,19.70
2010,08,16,03,03,19.60
2010,08,16,03,04,19.60
2010,08,16,03,05,19.60
2010,08,16,03,06,19.50
2010,08,16,03,07,19.50
2010,08,16,03,08,19.50
2010,08,16,03,09,19.60
2010,08,16,03,10,19.60
2010,08,16,03,11,19.60
2010,08,16,03,12,19.60
2010,08,16,03,13,19.70
2010,08,16,03,14,19.70
2010,08,16,03,15,19.70
2010,08,16,03,16,19.80
2010,08,16,03,17,19.90
2010,08,16,03,18,20.00
2010,08,16,03,19,20.00
2010,08,16,03,20,20.00
2010,08,16,03,21,20.00
2010,08,16,03,22,20.00
2010,08,16,03,23,20.00
2010,08,16,03,24,20.00
2010,08,16,03,25,20.00
2010,08,16,03,26,20.00
2010,08,16,03,27,20.00
2010,08,16,03,28,20.00
2010,08,16,03,29,19.90
2010,08,16,03,30,19.90
2010,08,16,03,31,19.90
2010,08,16,03,32,20.00
2010,08,16,03,33,20.00
2010,08,16,03,34,20.10
2010,08,16,03,35,20.10
2010,08,16,03,36,20.10
2010,08,16,03,37,20.20
2010,08,16,03,38,20.30
2010,08,16,03,39,20.40
2010,08,16,03,40,20.60
2010,08,16,03,41,20.70
2010,08,16,03,42,20.80
2010,08,16,03,43,20.80
2010,08,16,03,44,20.80
2010,08,16,03,45,20.90
2010,08,16,03,46,20.90
2010,08,16,03,47,20.80
2010,08,16,03,48,20.60
2010,08,16,03,49,20.40
2010,08,16,03,50,20.30
2010,08,16,03,51,20.30
2010,08,16,03,52,20.30
2010,08,16,03,53,20.20
2010,08,16,03,54,20.20
2010,08,16,03,55,20.10
2010,08,16,03,56,20.10
2010,08,16,03,57,20.10
2010,08,16,03,58,20.10
2010,08,16,03,59,20.10
2010,08,16,04,00,20.10
2010,08,16,04,01,20.10
2010,08,16,04,02,20.00
2010,08,16,04,03,19.90
2010,08,16,04,04,19.80
2010,08,16,04,05,19.70
2010,08,16,04,06,19.60
2010,08,16,04,07,19.50
2010,08,16,04,08,19.40
2010,08,16,04,09,19.30
2010,08,16,04,10,19.20
2010,08,16,04,11,19.20
2010,08,16,04,12,19.10
2010,08,16,04,13,19.10
2010,08,16,04,14,19.10
2010,08,16,04,15,19.10
2010,08,16,04,16,19.00
2010,08,16,04,17,19.10
2010,08,16,04,18,19.10
2010,08,16,04,19,19.10
2010,08,16,04,20,19.10
2010,08,16,04,21,19.00
2010,08,16,04,22,19.00
2010,08,16,04,23,19.10
2010,08,16,04,24,19.10
2010,08,16,04,25,19.10
2010,08,16,04,26,19.10
2010,08,16,04,27,19.10
2010,08,16,04,28,19.00
2010,08,16,04,29,19.10
2010,08,16,04,30,19.10
2010,08,16,04,31,19.10
2010,08,16,04,32,19.00
2010,08,16,04,33,19.00
2010,08,16,04,34,18.90
2010,08,16,04,35,18.80
2010,08,16,04,36,18.70
2010,08,16,04,37,18.50
2010,08,16,04,38,18.40
2010,08,16,04,39,18.30
2010,08,16,04,40,18.20
2010,08,16,04,41,18.10
2010,08,16,04,42,18.00
2010,08,16,04,43,17.90
2010,08,16,04,44,17.90
2010,08,16,04,45,17.80
2010,08,16,04,46,17.70
2010,08,16,04,47,17.70
2010,08,16,04,48,17.70
2010,08,16,04,49,17.60
2010,08,16,04,50,17.60
2010,08,16,04,51,17.60
2010,08,16,04,52,17.50
2010,08,16,04,53,17.50
2010,08,16,04,54,17.50
2010,08,16,04,55,17.50
2010,08,16,04,56,17.50
2010,08,16,04,57,17.50
2010,08,16,04,58,17.60
2010,08,16,04,59,17.60
2010,08,16,05,00,17.60
2010,08,16,05,01,17.70
2010,08,16,05,02,17.70
2010,08,16,05,03,17.70
2010,08,16,05,04,17.80
2010,08,16,05,05,17.80
2010,08,16,05,06,17.80
2010,08,16,05,07,17.80
2010,08,16,05,08,17.80
2010,08,16,05,09,17.80
2010,08,16,05,10,17.80
2010,08,16,05,11,17.80
2010,08,16,05,12,17.90
2010,08,16,05,13,17.90
2010,08,16,05,14,17.90
2010,08,16,05,15,17.90
2010,08,16,05,16,17.90
2010,08,16,05,17,17.90
2010,08,16,05,18,17.90
2010,08,16,05,19,17.90
2010,08,16,05,20,17.90
2010,08,16,05,21,17.90
2010,08,16,05,22,17.90
2010,08,16,05,23,17.90
2010,08,16,05,24,17.90
2010,08,16,05,25,17.90
2010,08,16,05,26,17.90
2010,08,16,05,27,17.90
2010,08,16,05,28,17.90
2010,08,16,05,29,17.90
2010,08,16,05,30,17.80
2010,08,16,05,31,17.80
2010,08,16,05,32,17.70
2010,08,16,05,33,17.70
2010,08,16,05,34,17.60
2010,08,16,05,35,17.60
2010,08,16,05,36,17.50
2010,08,16,05,37,17.40
2010,08,16,05,38,17.30
2010,08,16,05,39,17.30
2010,08,16,05,40,17.20
2010,08,16,05,41,17.20
2010,08,16,05,42,17.10
2010,08,16,05,43,17.10
2010,08,16,05,44,17.00
2010,08,16,05,45,17.00
2010,08,16,05,46,16.90
2010,08,16,05,47,16.90
2010,08,16,05,48,16.90
2010,08,16,05,49,16.80
2010,08,16,05,50,16.80
2010,08,16,05,51,16.80
2010,08,16,05,52,16.80
2010,08,16,05,53,16.80
2010,08,16,05,54,16.80
2010,08,16,05,55,16.80
2010,08,16,05,56,16.80
2010,08,16,05,57,16.80
2010,08,16,05,58,16.80
2010,08,16,05,59,16.70
2010,08,16,06,00,16.70
2010,08,16,06,01,16.60
2010,08,16,06,02,16.60
2010,08,16,06,03,16.50
2010,08,16,06,04,16.50
2010,08,16,06,05,16.40
2010,08,16,06,06,16.40
2010,08,16,06,07,16.40
2010,08,16,06,08,16.40
2010,08,16,06,09,16.40
2010,08,16,06,10,16.40
2010,08,16,06,11,16.30
2010,08,16,06,12,16.30
2010,08,16,06,13,16.30
2010,08,16,06,14,16.40
2010,08,16,06,15,16.40
2010,08,16,06,16,16.40
2010,08,16,06,17,16.40
2010,08,16,06,18,16.30
2010,08,16,06,19,16.30
2010,08,16,06,20,16.30
2010,08,16,06,21,16.40
2010,08,16,06,22,16.40
2010,08,16,06,23,16.40
2010,08,16,06,24,16.40
2010,08,16,06,25,16.40
2010,08,16,06,26,16.40
2010,08,16,06,27,16.50
2010,08,16,06,28,16.60
2010,08,16,06,29,16.60
2010,08,16,06,30,16.70
2010,08,16,06,31,16.80
2010,08,16,06,32,16.80
2010,08,16,06,33,16.80
2010,08,16,06,34,16.80
2010,08,16,06,35,16.90
2010,08,16,06,36,16.90
2010,08,16,06,37,17.00
2010,08,16,06,38,17.00
2010,08,16,06,39,17.10
2010,08,16,06,40,17.20
2010,08,16,06,41,17.20
2010,08,16,06,42,17.20
2010,08,16,06,43,17.20
2010,08,16,06,44,17.20
2010,08,16,06,45,17.20
2010,08,16,06,46,17.30
2010,08,16,06,47,17.40
2010,08,16,06,48,17.40
2010,08,16,06,49,17.40
2010,08,16,06,50,17.40
2010,08,16,06,51,17.40
2010,08,16,06,52,17.30
2010,08,16,06,53,17.30
2010,08,16,06,54,17.30
2010,08,16,06,55,17.40
2010,08,16,06,56,17.50
2010,08,16,06,57,17.50
2010,08,16,06,58,17.50
2010,08,16,06,59,17.50
2010,08,16,07,00,17.50
2010,08,16,07,01,17.40
2010,08,16,07,02,17.30
2010,08,16,07,03,17.30
2010,08,16,07,04,17.20
2010,08,16,07,05,17.20
2010,08,16,07,06,17.20
2010,08,16,07,07,17.20
2010,08,16,07,08,17.10
2010,08,16,07,09,17.10
2010,08,16,07,10,17.10
2010,08,16,07,11,17.10
2010,08,16,07,12,17.10
2010,08,16,07,13,17.10
2010,08,16,07,14,17.20
2010,08,16,07,15,17.30
2010,08,16,07,16,17.30
2010,08,16,07,17,17.30
2010,08,16,07,18,17.40
2010,08,16,07,19,17.40
2010,08,16,07,20,17.40
2010,08,16,07,21,17.40
2010,08,16,07,22,17.50
2010,08,16,07,23,17.50
2010,08,16,07,24,17.60
2010,08,16,07,25,17.60
2010,08,16,07,26,17.60
2010,08,16,07,27,17.60
2010,08,16,07,28,17.70
2010,08,16,07,29,17.70
2010,08,16,07,30,17.70
2010,08,16,07,31,17.70
2010,08,16,07,32,17.80
2010,08,16,07,33,17.80
2010,08,16,07,34,17.90
2010,08,16,07,35,18.00
2010,08,16,07,36,18.00
2010,08,16,07,37,18.10
2010,08,16,07,38,18.20
2010,08,16,07,39,18.20
2010,08,16,07,40,18.20
2010,08,16,07,41,18.20
2010,08,16,07,42,18.30
2010,08,16,07,43,18.30
2010,08,16,07,44,18.30
2010,08,16,07,45,18.40
2010,08,16,07,46,18.40
2010,08,16,07,47,18.50
2010,08,16,07,48,18.50
2010,08,16,07,49,18.60
2010,08,16,07,50,18.60
2010,08,16,07,51,18.70
2010,08,16,07,52,18.80
2010,08,16,07,53,18.80
2010,08,16,07,54,18.90
2010,08,16,07,55,18.90
2010,08,16,07,56,19.00
2010,08,16,07,57,19.10
2010,08,16,07,58,19.10
2010,08,16,07,59,19.20
2010,08,16,08,00,19.30
2010,08,16,08,01,19.40
2010,08,16,08,02,19.50
2010,08,16,08,03,19.60
2010,08,16,08,04,19.70
2010,08,16,08,05,19.80
2010,08,16,08,06,19.90
2010,08,16,08,07,19.90
2010,08,16,08,08,20.00
2010,08,16,08,09,20.10
2010,08,16,08,10,20.20
2010,08,16,08,11,20.30
2010,08,16,08,12,20.40
2010,08,16,08,13,20.50
2010,08,16,08,14,20.60
2010,08,16,08,15,20.60
2010,08,16,08,16,20.70
2010,08,16,08,17,20.70
2010,08,16,08,18,20.70
2010,08,16,08,19,20.80
2010,08,16,08,20,20.90
2010,08,16,08,21,21.00
2010,08,16,08,22,21.10
2010,08,16,08,23,21.20
2010,08,16,08,24,21.20
2010,08,16,08,25,21.30
2010,08,16,08,26,21.40
2010,08,16,08,27,21.40
2010,08,16,08,28,21.40
2010,08,16,08,29,21.50
2010,08,16,08,30,21.60
2010,08,16,08,31,21.70
2010,08,16,08,32,21.90
2010,08,16,08,33,22.00
2010,08,16,08,34,22.10
2010,08,16,08,35,22.20
2010,08,16,08,36,22.30
2010,08,16,08,37,22.40
2010,08,16,08,38,22.50
2010,08,16,08,39,22.60
2010,08,16,08,40,22.70
2010,08,16,08,41,22.70
2010,08,16,08,42,22.70
2010,08,16,08,43,22.70
2010,08,16,08,44,22.70
2010,08,16,08,45,22.60
2010,08,16,08,46,22.60
2010,08,16,08,47,22.60
2010,08,16,08,48,22.50
2010,08,16,08,49,22.60
2010,08,16,08,50,22.60
2010,08,16,08,51,22.60
2010,08,16,08,52,22.60
2010,08,16,08,53,22.60
2010,08,16,08,54,22.60
2010,08,16,08,55,22.60
2010,08,16,08,56,22.60
2010,08,16,08,57,22.60
2010,08,16,08,58,22.60
2010,08,16,08,59,22.70
2010,08,16,09,00,22.80
2010,08,16,09,01,22.90
2010,08,16,09,02,23.00
2010,08,16,09,03,23.00
2010,08,16,09,04,22.90
2010,08,16,09,05,22.80
2010,08,16,09,06,22.80
2010,08,16,09,07,22.70
2010,08,16,09,08,22.60
2010,08,16,09,09,22.50
2010,08,16,09,10,22.40
2010,08,16,09,11,22.40
2010,08,16,09,12,22.30
2010,08,16,09,13,22.40
2010,08,16,09,14,22.50
2010,08,16,09,15,22.60
2010,08,16,09,16,22.70
2010,08,16,09,17,22.70
2010,08,16,09,18,22.80
2010,08,16,09,19,22.80
2010,08,16,09,20,22.90
2010,08,16,09,21,22.90
2010,08,16,09,22,23.00
2010,08,16,09,23,23.00
2010,08,16,09,24,22.90
2010,08,16,09,25,23.00
2010,08,16,09,26,23.00
2010,08,16,09,27,22.90
2010,08,16,09,28,22.90
2010,08,16,09,29,22.80
2010,08,16,09,30,22.60
2010,08,16,09,31,22.60
2010,08,16,09,32,22.50
2010,08,16,09,33,22.50
2010,08,16,09,34,22.40
2010,08,16,09,35,22.40
2010,08,16,09,36,22.40
2010,08,16,09,37,22.40
2010,08,16,09,38,22.30
2010,08,16,09,39,22.40
2010,08,16,09,40,22.40
2010,08,16,09,41,22.50
2010,08,16,09,42,22.60
2010,08,16,09,43,22.60
2010,08,16,09,44,22.70
2010,08,16,09,45,22.70
2010,08,16,09,46,22.70
2010,08,16,09,47,22.70
2010,08,16,09,48,22.70
2010,08,16,09,49,22.70
2010,08,16,09,50,22.70
2010,08,16,09,51,22.60
2010,08,16,09,52,22.60
2010,08,16,09,53,22.60
2010,08,16,09,54,22.70
2010,08,16,09,55,22.60
2010,08,16,09,56,22.60
2010,08,16,09,57,22.50
2010,08,16,09,58,22.50
2010,08,16,09,59,22.40
2010,08,16,10,00,22.40
2010,08,16,10,01,22.50
2010,08,16,10,02,22.60
2010,08,16,10,03,22.70
2010,08,16,10,04,22.90
2010,08,16,10,05,23.00
2010,08,16,10,06,23.10
2010,08,16,10,07,23.10
2010,08,16,10,08,23.10
2010,08,16,10,09,23.00
2010,08,16,10,10,23.00
2010,08,16,10,11,22.90
2010,08,16,10,12,22.90
2010,08,16,10,13,22.80
2010,08,16,10,14,22.80
2010,08,16,10,15,22.80
2010,08,16,10,16,23.00
2010,08,16,10,17,23.10
2010,08,16,10,18,23.20
2010,08,16,10,19,23.30
2010,08,16,10,20,23.50
2010,08,16,10,21,23.50
2010,08,16,10,22,23.60
2010,08,16,10,23,23.60
2010,08,16,10,24,23.70
2010,08,16,10,25,23.70
2010,08,16,10,26,23.70
2010,08,16,10,27,23.80
2010,08,16,10,28,23.90
2010,08,16,10,29,24.00
2010,08,16,10,30,24.10
2010,08,16,10,31,24.10
2010,08,16,10,32,24.20
2010,08,16,10,33,24.20
2010,08,16,10,34,24.30
2010,08,16,10,35,24.40
2010,08,16,10,36,24.50
2010,08,16,10,37,24.50
2010,08,16,10,38,24.50
2010,08,16,10,39,24.40
2010,08,16,10,40,24.30
2010,08,16,10,41,24.20
2010,08,16,10,42,24.00
2010,08,16,10,43,23.80
2010,08,16,10,44,23.60
2010,08,16,10,45,23.50
2010,08,16,10,46,23.40
2010,08,16,10,47,23.30
2010,08,16,10,48,23.10
2010,08,16,10,49,23.00
2010,08,16,10,50,23.00
2010,08,16,10,51,23.10
2010,08,16,10,52,23.00
2010,08,16,10,53,22.80
2010,08,16,10,54,22.50
2010,08,16,10,55,22.20
2010,08,16,10,56,22.20
2010,08,16,10,57,22.30
2010,08,16,10,58,22.40
2010,08,16,10,59,22.50
2010,08,16,11,00,22.70
2010,08,16,11,01,22.70
2010,08,16,11,02,22.70
2010,08,16,11,03,22.60
2010,08,16,11,04,22.60
2010,08,16,11,05,22.70
2010,08,16,11,06,22.70
2010,08,16,11,07,22.80
2010,08,16,11,08,22.90
2010,08,16,11,09,23.00
2010,08,16,11,10,23.10
2010,08,16,11,11,23.20
2010,08,16,11,12,23.20
2010,08,16,11,13,23.40
2010,08,16,11,14,23.60
2010,08,16,11,15,23.60
2010,08,16,11,16,23.60
2010,08,16,11,17,23.70
2010,08,16,11,18,23.70
2010,08,16,11,19,23.80
2010,08,16,11,20,23.80
2010,08,16,11,21,23.80
2010,08,16,11,22,23.80
2010,08,16,11,23,24.00
2010,08,16,11,24,24.20
2010,08,16,11,25,24.20
2010,08,16,11,26,24.30
2010,08,16,11,27,24.40
2010,08,16,11,28,24.50
2010,08,16,11,29,24.50
2010,08,16,11,30,24.60
2010,08,16,11,31,24.60
2010,08,16,11,32,24.70
2010,08,16,11,33,24.70
2010,08,16,11,34,24.80
2010,08,16,11,35,24.80
2010,08,16,11,36,24.90
2010,08,16,11,37,25.00
2010,08,16,11,38,25.00
2010,08,16,11,39,25.00
2010,08,16,11,40,25.10
2010,08,16,11,41,25.20
2010,08,16,11,42,25.30
2010,08,16,11,43,25.30
2010,08,16,11,44,25.40
2010,08,16,11,45,25.40
2010,08,16,11,46,25.50
2010,08,16,11,47,25.60
2010,08,16,11,48,25.50
2010,08,16,11,49,25.50
2010,08,16,11,50,25.70
2010,08,16,11,51,26.00
2010,08,16,11,52,26.10
2010,08,16,11,53,26.10
2010,08,16,11,54,26.10
2010,08,16,11,55,26.10
2010,08,16,11,56,26.10
2010,08,16,11,57,26.10
2010,08,16,11,58,26.10
2010,08,16,11,59,26.30
2010,08,16,12,00,26.40
2010,08,16,12,01,26.40
2010,08,16,12,02,26.40
2010,08,16,12,03,26.30
2010,08,16,12,04,26.10
2010,08,16,12,05,26.00
2010,08,16,12,06,25.90
2010,08,16,12,07,26.00
2010,08,16,12,08,26.30
2010,08,16,12,09,26.50
2010,08,16,12,10,26.70
2010,08,16,12,11,26.90
2010,08,16,12,12,26.80
2010,08,16,12,13,26.70
2010,08,16,12,14,26.60
2010,08,16,12,15,26.70
2010,08,16,12,16,26.70
2010,08,16,12,17,26.60
2010,08,16,12,18,26.50
2010,08,16,12,19,26.50
2010,08,16,12,20,26.40
2010,08,16,12,21,26.30
2010,08,16,12,22,26.20
2010,08,16,12,23,26.10
2010,08,16,12,24,26.00
2010,08,16,12,25,26.00
2010,08,16,12,26,26.10
2010,08,16,12,27,26.30
2010,08,16,12,28,26.50
2010,08,16,12,29,26.70
2010,08,16,12,30,26.70
2010,08,16,12,31,26.80
2010,08,16,12,32,26.90
2010,08,16,12,33,27.00
2010,08,16,12,34,27.10
2010,08,16,12,35,27.10
2010,08,16,12,36,27.20
2010,08,16,12,37,27.20
2010,08,16,12,38,27.10
2010,08,16,12,39,27.20
2010,08,16,12,40,27.20
2010,08,16,12,41,27.30
2010,08,16,12,42,27.30
2010,08,16,12,43,27.40
2010,08,16,12,44,27.50
2010,08,16,12,45,27.50
2010,08,16,12,46,27.50
2010,08,16,12,47,27.50
2010,08,16,12,48,27.60
2010,08,16,12,49,27.60
2010,08,16,12,50,27.60
2010,08,16,12,51,27.60
2010,08,16,12,52,27.70
2010,08,16,12,53,27.80
2010,08,16,12,54,28.00
2010,08,16,12,55,28.00
2010,08,16,12,56,28.00
2010,08,16,12,57,27.80
2010,08,16,12,58,27.80
2010,08,16,12,59,27.70
2010,08,16,13,00,27.80
2010,08,16,13,01,27.80
2010,08,16,13,02,27.80
2010,08,16,13,03,27.80
2010,08,16,13,04,27.80
2010,08,16,13,05,27.90
2010,08,16,13,06,27.90
2010,08,16,13,07,27.90
2010,08,16,13,08,27.80
2010,08,16,13,09,27.80
2010,08,16,13,10,27.80
2010,08,16,13,11,27.70
2010,08,16,13,12,27.60
2010,08,16,13,13,27.50
2010,08,16,13,14,27.30
2010,08,16,13,15,27.20
2010,08,16,13,16,27.20
2010,08,16,13,17,27.30
2010,08,16,13,18,27.30
2010,08,16,13,19,27.20
2010,08,16,13,20,27.10
2010,08,16,13,21,27.20
2010,08,16,13,22,27.10
2010,08,16,13,23,27.10
2010,08,16,13,24,27.10
2010,08,16,13,25,27.00
2010,08,16,13,26,26.90
2010,08,16,13,27,26.70
2010,08,16,13,28,26.80
2010,08,16,13,29,26.80
2010,08,16,13,30,26.80
2010,08,16,13,31,26.80
2010,08,16,13,32,26.90
2010,08,16,13,33,26.90
2010,08,16,13,34,26.90
2010,08,16,13,35,27.10
2010,08,16,13,36,27.30
2010,08,16,13,37,27.40
2010,08,16,13,38,27.40
2010,08,16,13,39,27.20
2010,08,16,13,40,27.10
2010,08,16,13,41,27.20
2010,08,16,13,42,27.20
2010,08,16,13,43,27.40
2010,08,16,13,44,27.50
2010,08,16,13,45,27.50
2010,08,16,13,46,27.40
2010,08,16,13,47,27.30
2010,08,16,13,48,27.30
2010,08,16,13,49,27.30
2010,08,16,13,50,27.20
2010,08,16,13,51,27.10
2010,08,16,13,52,27.00
2010,08,16,13,53,27.20
2010,08,16,13,54,27.40
2010,08,16,13,55,27.70
2010,08,16,13,56,27.90
2010,08,16,13,57,28.10
2010,08,16,13,58,28.10
2010,08,16,13,59,28.20
2010,08,16,14,00,28.10
2010,08,16,14,01,28.10
2010,08,16,14,02,28.00
2010,08,16,14,03,27.80
2010,08,16,14,04,27.70
2010,08,16,14,05,27.60
2010,08,16,14,06,27.60
2010,08,16,14,07,27.80
2010,08,16,14,08,27.90
2010,08,16,14,09,28.30
2010,08,16,14,10,28.50
2010,08,16,14,11,28.70
2010,08,16,14,12,28.80
2010,08,16,14,13,29.00
2010,08,16,14,14,29.00
2010,08,16,14,15,29.00
2010,08,16,14,16,29.00
2010,08,16,14,17,28.80
2010,08,16,14,18,28.80
2010,08,16,14,19,28.80
2010,08,16,14,20,28.90
2010,08,16,14,21,28.90
2010,08,16,14,22,28.90
2010,08,16,14,23,28.80
2010,08,16,14,24,28.80
2010,08,16,14,25,28.60
2010,08,16,14,26,28.50
2010,08,16,14,27,28.50
2010,08,16,14,28,28.50
2010,08,16,14,29,28.60
2010,08,16,14,30,28.70
2010,08,16,14,31,28.60
2010,08,16,14,32,28.50
2010,08,16,14,33,28.40
2010,08,16,14,34,28.30
2010,08,16,14,35,28.30
2010,08,16,14,36,28.30
2010,08,16,14,37,28.50
2010,08,16,14,38,28.70
2010,08,16,14,39,28.90
2010,08,16,14,40,29.20
2010,08,16,14,41,29.30
2010,08,16,14,42,29.50
2010,08,16,14,43,29.50
2010,08,16,14,44,29.30
2010,08,16,14,45,29.10
2010,08,16,14,46,29.00
2010,08,16,14,47,28.90
2010,08,16,14,48,29.00
2010,08,16,14,49,29.00
2010,08,16,14,50,29.00
2010,08,16,14,51,29.00
2010,08,16,14,52,28.90
2010,08,16,14,53,28.90
2010,08,16,14,54,28.70
2010,08,16,14,55,28.50
2010,08,16,14,56,28.40
2010,08,16,14,57,28.30
2010,08,16,14,58,28.40
2010,08,16,14,59,28.50
2010,08,16,15,00,28.60
2010,08,16,15,01,28.70
2010,08,16,15,02,28.80
2010,08,16,15,03,28.90
2010,08,16,15,04,29.00
2010,08,16,15,05,29.00
2010,08,16,15,06,28.80
2010,08,16,15,07,28.50
2010,08,16,15,08,28.50
2010,08,16,15,09,28.50
2010,08,16,15,10,28.60
2010,08,16,15,11,28.60
2010,08,16,15,12,28.50
2010,08,16,15,13,28.50
2010,08,16,15,14,28.60
2010,08,16,15,15,28.80
2010,08,16,15,16,28.90
2010,08,16,15,17,28.80
2010,08,16,15,18,28.70
2010,08,16,15,19,28.60
2010,08,16,15,20,28.60
2010,08,16,15,21,28.50
2010,08,16,15,22,28.40
2010,08,16,15,23,28.40
2010,08,16,15,24,28.40
2010,08,16,15,25,28.40
2010,08,16,15,26,28.40
2010,08,16,15,27,28.50
2010,08,16,15,28,28.50
2010,08,16,15,29,28.50
2010,08,16,15,30,28.50
2010,08,16,15,31,28.60
2010,08,16,15,32,28.60
2010,08,16,15,33,28.50
2010,08,16,15,34,28.60
2010,08,16,15,35,28.60
2010,08,16,15,36,28.70
2010,08,16,15,37,28.70
2010,08,16,15,38,28.60
2010,08,16,15,39,28.60
2010,08,16,15,40,28.60
2010,08,16,15,41,28.60
2010,08,16,15,42,28.60
2010,08,16,15,43,28.60
2010,08,16,15,44,28.60
2010,08,16,15,45,28.60
2010,08,16,15,46,28.50
2010,08,16,15,47,28.50
2010,08,16,15,48,28.50
2010,08,16,15,49,28.60
2010,08,16,15,50,28.80
2010,08,16,15,51,28.80
2010,08,16,15,52,28.90
2010,08,16,15,53,29.00
2010,08,16,15,54,29.00
2010,08,16,15,55,28.90
2010,08,16,15,56,28.80
2010,08,16,15,57,28.70
2010,08,16,15,58,28.60
2010,08,16,15,59,28.50
2010,08,16,16,00,28.60
2010,08,16,16,01,28.60
2010,08,16,16,02,28.50
2010,08,16,16,03,28.40
2010,08,16,16,04,28.30
2010,08,16,16,05,28.20
2010,08,16,16,06,28.30
2010,08,16,16,07,28.40
2010,08,16,16,08,28.50
2010,08,16,16,09,28.50
2010,08,16,16,10,28.50
2010,08,16,16,11,28.60
2010,08,16,16,12,28.60
2010,08,16,16,13,28.60
2010,08,16,16,14,28.60
2010,08,16,16,15,28.70
2010,08,16,16,16,28.70
2010,08,16,16,17,28.70
2010,08,16,16,18,28.60
2010,08,16,16,19,28.50
2010,08,16,16,20,28.50
2010,08,16,16,21,28.40
2010,08,16,16,22,28.40
2010,08,16,16,23,28.50
2010,08,16,16,24,28.50
2010,08,16,16,25,28.50
2010,08,16,16,26,28.50
2010,08,16,16,27,28.50
2010,08,16,16,28,28.40
2010,08,16,16,29,28.40
2010,08,16,16,30,28.40
2010,08,16,16,31,28.40
2010,08,16,16,32,28.50
2010,08,16,16,33,28.50
2010,08,16,16,34,28.60
2010,08,16,16,35,28.60
2010,08,16,16,36,28.70
2010,08,16,16,37,28.70
2010,08,16,16,38,28.70
2010,08,16,16,39,28.70
2010,08,16,16,40,28.70
2010,08,16,16,41,28.60
2010,08,16,16,42,28.50
2010,08,16,16,43,28.40
2010,08,16,16,44,28.40
2010,08,16,16,45,28.50
2010,08,16,16,46,28.50
2010,08,16,16,47,28.60
2010,08,16,16,48,28.60
2010,08,16,16,49,28.70
2010,08,16,16,50,28.70
2010,08,16,16,51,28.70
2010,08,16,16,52,28.70
2010,08,16,16,53,28.80
2010,08,16,16,54,28.90
2010,08,16,16,55,29.00
2010,08,16,16,56,29.00
2010,08,16,16,57,28.90
2010,08,16,16,58,28.80
2010,08,16,16,59,28.80
2010,08,16,17,00,28.80
2010,08,16,17,01,28.70
2010,08,16,17,02,28.60
2010,08,16,17,03,28.50
2010,08,16,17,04,28.40
2010,08,16,17,05,28.40
2010,08,16,17,06,28.40
2010,08,16,17,07,28.30
2010,08,16,17,08,28.30
2010,08,16,17,09,28.40
2010,08,16,17,10,28.30
2010,08,16,17,11,28.30
2010,08,16,17,12,28.30
2010,08,16,17,13,28.30
2010,08,16,17,14,28.20
2010,08,16,17,15,28.20
2010,08,16,17,16,28.30
2010,08,16,17,17,28.30
2010,08,16,17,18,28.40
2010,08,16,17,19,28.40